Aspen, USA 16 day weather forecast

Slopes altitude range 2425 m - 3415m

Number of lifts: 36 Pistes: 241km

In some cases the lift and piste totals shown are for the ski domain (e.g. Three Valleys) rather than individual resort (e.g. Courchevel)

Overview

The 16 day weather forecast is fully updated 4 times every day.

    • Wed 21 NOV 2018
    • Wed 21
    • -10C -9C
    • Thu 22 NOV 2018
    • Thu 22
    • -9C -8C
    • Fri 23 NOV 2018
    • Fri 23
    • -12C -7C
    • Sat 24 NOV 2018
    • Sat 24
    • -8C -7C
    • Sun 25 NOV 2018
    • Sun 25
    • -22C -21C
    • Mon 26 NOV 2018
    • Mon 26
    • -19C -17C
    • Tue 27 NOV 2018
    • Tue 27
    • -17C -16C
    • Wed 28 NOV 2018
    • Wed 28
    • -14C -13C
    • Thu 29 NOV 2018
    • Thu 29
    • -12C -9C
    • Fri 30 NOV 2018
    • Fri 30
    • -11C -10C
    • Sat 01 DEC 2018
    • Sat 01
    • -10C -6C
    • Sun 02 DEC 2018
    • Sun 02
    • -17C -6C
    • Mon 03 DEC 2018
    • Mon 03
    • -9C 0C
    • Tue 04 DEC 2018
    • Tue 04
    • -7C -1C
    • Wed 05 DEC 2018
    • Wed 05
    • -11C -7C
    • Thu 06 DEC 2018
    • Thu 06
    • -17C -7C

Date:

Time Type 0°C level Temp Chill Snow Cloud Speed Gust Dir Press
12:00 1790m -9°C -9_3 0cm 0% 3mph 3mph 1026mB
15:00 2054m -8°C -8_2 0cm 0% 2mph 2mph 1026mB
18:00 3136m -1°C -1_3 0cm 0% 3mph 3mph 1022mB
21:00 3343m -1°C -1_4 0cm 0% 4mph 4mph 1020mB
0:00 2360m -6°C -6_1 0cm 0% 1mph 2mph 1022mB
3:00 2162m -8°C -8_4 0cm 0% 4mph 4mph 1024mB
6:00 2052m -8°C -8_5 0cm 0% 5mph 6mph 1024mB
9:00 2038m -9°C -9_5 0cm 67% 5mph 5mph 1023mB
12:00 1986m -8°C -8_4 0cm 83% 4mph 5mph 1022mB
15:00 2216m -7°C -7_5 0cm 87% 5mph 6mph 1020mB
18:00 2981m -2°C -2_8 0cm 91% 8mph 16mph 1015mB
21:00 2947m -3°C -3_9 1cm 100% 9mph 18mph 1011mB
0:00 2410m -6°C -6_5 1cm 100% 5mph 7mph 1012mB
3:00 2363m -7°C -7_5 2cm 100% 5mph 7mph 1013mB
6:00 2242m -8°C -8_7 5cm 100% 7mph 9mph 1015mB
9:00 1973m -9°C -9_8 2cm 100% 8mph 13mph 1017mB
12:00 1591m -7°C -7_5 2cm 100% 5mph 6mph 1020mB
15:00 1866m -10°C -10_7 1cm 100% 7mph 10mph 1021mB
18:00 2273m -7°C -7_8 1cm 100% 8mph 11mph 1016mB
21:00 2533m -7°C -7_7 1cm 100% 7mph 10mph 1012mB
0:00 2235m -7°C -7_5 1cm 100% 5mph 6mph 1013mB
3:00 2164m -8°C -8_6 1cm 100% 6mph 8mph 1015mB
6:00 2228m -8°C -8_7 3cm 100% 7mph 9mph 1014mB
9:00 2279m -7°C -7_9 3cm 100% 9mph 13mph 1011mB
12:00 2216m -7°C -7_9 6cm 100% 9mph 14mph 1008mB
15:00 2187m -7°C -7_9 4cm 100% 9mph 30mph 1007mB
18:00 2348m -6°C -6_16 7cm 100% 16mph 39mph 1006mB
21:00 1653m -11°C -11_24 2cm 100% 24mph 38mph 1011mB
0:00 1051m -15°C -15_9 2cm 100% 9mph 21mph 1018mB
3:00 316m -20°C -20_6 0cm 88% 6mph 7mph 1024mB
6:00 178m -21°C -21_4 0cm 90% 4mph 5mph 1027mB
9:00 63m -22°C -22_4 0cm 99% 4mph 6mph 1029mB
12:00 5m -21°C -21_5 0cm 97% 5mph 6mph 1031mB
15:00 345m -19°C -19_4 0cm 37% 4mph 5mph 1033mB
18:00 1938m -9°C -9_5 0cm 38% 5mph 6mph 1025mB
21:00 2280m -9°C -9_5 0cm 0% 5mph 5mph 1020mB
0:00 863m -16°C -16_1 0cm 0% 1mph 2mph 1024mB
3:00 651m -18°C -18_2 0cm 0% 2mph 3mph 1028mB
6:00 564m -18°C -18_2 0cm 0% 2mph 2mph 1029mB
9:00 523m -19°C -19_1 0cm 0% 1mph 3mph 1029mB
12:00 658m -17°C -17_4 0cm 0% 4mph 5mph 1030mB
15:00 980m -15°C -15_3 0cm 0% 3mph 4mph 1031mB
18:00 2330m -6°C -6_4 0cm 0% 4mph 4mph 1024mB
21:00 2502m -6°C -6_6 0cm 0% 6mph 7mph 1020mB
0:00 1250m -14°C -14_4 0cm 0% 4mph 5mph 1024mB
3:00 725m -17°C -17_4 0cm 22% 4mph 4mph 1028mB
6:00 675m -17°C -17_4 0cm 12% 4mph 5mph 1030mB
9:00 753m -17°C -17_4 0cm 0% 4mph 5mph 1030mB
12:00 890m -16°C -16_3 0cm 0% 3mph 4mph 1029mB
15:00 1407m -13°C -13_3 0cm 17% 3mph 4mph 1028mB
18:00 2808m -3°C -3_4 0cm 37% 4mph 5mph 1021mB
21:00 2999m -3°C -3_5 0cm 99% 5mph 6mph 1018mB
0:00 1807m -10°C -10_2 0cm 99% 2mph 3mph 1020mB
3:00 1402m -13°C -13_1 0cm 97% 1mph 3mph 1022mB
6:00 1334m -13°C -13_1 0cm 97% 1mph 3mph 1022mB
9:00 1268m -14°C -14_1 0cm 92% 1mph 2mph 1021mB
12:00 1263m -13°C -13_2 0cm 95% 2mph 3mph 1021mB
15:00 1674m -11°C -11_3 0cm 100% 3mph 3mph 1020mB
18:00 2947m -3°C -3_4 0cm 99% 4mph 5mph 1015mB
21:00 3063m -2°C -2_4 0cm 100% 4mph 5mph 1011mB
0:00 1937m -9°C -9_3 0cm 91% 3mph 3mph 1012mB
3:00 1609m -11°C -11_3 0cm 60% 3mph 3mph 1013mB
6:00 1642m -12°C -12_6 0cm 80% 6mph 7mph 1012mB
9:00 1689m -12°C -12_5 0cm 100% 5mph 6mph 1011mB
12:00 1946m -9°C -9_4 3cm 100% 4mph 5mph 1011mB
15:00 2113m -8°C -8_4 2cm 100% 4mph 6mph 1010mB
18:00 2437m -6°C -6_10 3cm 100% 10mph 20mph 1009mB
21:00 2389m -6°C -6_9 1cm 100% 9mph 17mph 1008mB
0:00 1952m -9°C -9_5 1cm 100% 5mph 6mph 1010mB
3:00 1587m -12°C -12_1 1cm 100% 1mph 2mph 1013mB
6:00 1613m -12°C -12_2 1cm 100% 2mph 2mph 1013mB
9:00 1741m -11°C -11_2 1cm 100% 2mph 2mph 1012mB
12:00 1876m -10°C -10_4 1cm 100% 4mph 6mph 1011mB
15:00 2068m -8°C -8_6 2cm 100% 6mph 8mph 1009mB
18:00 2250m -7°C -7_6 5cm 100% 6mph 8mph 1005mB
21:00 2296m -7°C -7_5 2cm 100% 5mph 7mph 1002mB
0:00 2197m -8°C -8_4 6cm 100% 4mph 5mph 1004mB
3:00 1952m -9°C -9_7 4cm 100% 7mph 10mph 1005mB
6:00 1637m -11°C -11_4 6cm 100% 4mph 4mph 1006mB
Afternoon 0.00520833mm 0.125 2191m -6°C -6_13 1cm 100% 13mph 34mph 1003mB
Morning 0.166667mm 0.625 1629m -9°C -9_6 5cm 100% 6mph 14mph 1019mB
Afternoon 0.197917mm 0 2150m -6°C -6_4 2cm 61% 4mph 8mph 1021mB
Morning 0.270833mm 0 1615m -11°C -11_6 0cm 98% 6mph 7mph 1024mB
Afternoon 0.0104167mm 0 2965m 0°C 0_8 1cm 100% 8mph 18mph 1014mB
Morning 0.484375mm 1.375 2687m -3°C -3_9 11cm 85% 9mph 21mph 1008mB
Afternoon 0.328125mm 1.625 2309m -1°C -1_12 13cm 93% 12mph 28mph 1010mB
Morning 0.0572917mm 0.875 1847m -8°C -8_7 7cm 100% 7mph 16mph 1019mB
Afternoon 0.0833333mm 0.1875 1945m -7°C -7_4 2cm 95% 4mph 6mph 1022mB
Morning 0.885417mm 0 617m -16°C -16_5 0cm 9% 5mph 6mph 1024mB
Afternoon 0.807292mm 0 1972m -7°C -7_2 0cm 2% 2mph 4mph 1015mB
Morning 0.411458mm 0 437m -17°C -17_2 3cm 85% 2mph 3mph 1026mB

16 day outlook at a glance

Forecast issued: 21/11/2018 13:46:47

Chat

Your comments and questions. In a resort? Let us know what it's like!


Characters left 250

For terms and conditions see Readers Comments on the Cookie and privacy policy page.